Simultaneous Nadir Overpasses (SNOs) Predictions

Prediction of SNOs between AQUA and NOAA-19 Satellite Orbit:

Table of predicted SNOs for the next 14.0 days since TLE Epoch: 12/24/2022
Index Date (AQUA) Time (AQUA) Lat,Lon (AQUA) SZA (AQUA ) Date (NOAA-19) Time (NOAA-19) Lat,Lon (NOAA-19) SZA (NOAA-19 ) Distance(km) Time Diff (sec)
1 12/26/2022 09:20:30 76.54, 28.51 100.08 12/26/2022 09:19:25 76.49, 25.31 100.20 83.32 65
2 12/26/2022 10:10:04 -76.96,-165.32 79.46 12/26/2022 10:10:19 -76.99,-165.32 79.42 4.16 15
3 12/28/2022 14:53:22 -76.76, 124.56 79.76 12/28/2022 14:52:12 -76.66, 122.86 79.77 45.04 70
4 12/28/2022 15:42:52 76.95, -68.48 100.46 12/28/2022 15:42:58 76.98, -68.48 100.48 2.88 6
5 12/30/2022 21:15:39 -76.95, 28.33 79.67 12/30/2022 21:15:49 -76.97, 28.33 79.66 1.28 10
6 01/02/2023 01:58:50 -76.53, -40.97 80.32 01/02/2023 01:57:44 -76.48, -44.06 80.19 80.58 66
7 01/02/2023 02:48:25 76.95, 125.15 100.17 01/02/2023 02:48:27 76.94, 125.15 100.16 1.26 2
8 01/04/2023 08:21:11 -76.95,-138.02 80.04 01/04/2023 08:21:17 -76.95,-137.96 80.04 1.68 6
9 01/06/2023 13:53:57 76.96, -41.21 99.73 01/06/2023 13:53:56 76.93, -41.13 99.71 3.37 1



Historial Predications of SNOs between AQUA and NOAA-19
